Monarch Pass, CO

5:13 AM MDT on June 28, 2017 (GMT -0600)
Monarch Pass

Weather History for KMYP - April, 2013

Change the Weather History Date:

Saturday, April 27, 2013

  Actual Average (KALS) Record (KALS)
Temperature  
Mean Temperature 35 °F -  
Max Temperature 44 °F 61 °F 76 °F (2000)
Min Temperature 26 °F 25 °F 8 °F (1991)
Degree Days  
Heating Degree Days 30    
Moisture  
Dew Point 14 °F    
Average Humidity 48    
Maximum Humidity 86    
Minimum Humidity 20    
Precipitation  
Precipitation 0.00 in - - ()
Sea Level Pressure  
Sea Level Pressure 30.55 in    
Wind  
Wind Speed 10 mph (West)    
Max Wind Speed 18 mph    
Max Gust Speed 29 mph    
Averages and records for this station are not official NWS values.
T = Trace of Precipitation, MM = Missing Value Source: NWS Daily Summary

Daily Weather History Graph

Daily Weather History Graph

Search for Another Location

Airport or City:

Trip Planner

Search our weather history database for the weather conditions in past years. The results will help you decide how hot, cold, wet, or windy it might be!

Date:

Astronomy

Apr. 27, 2013 Rise Set
Actual Time 6:12 AM MDT 7:52 PM MDT
Civil Twilight 5:44 AM MDT 8:20 PM MDT
Nautical Twilight 5:10 AM MDT 8:55 PM MDT
Astronomical Twilight 4:34 AM MDT 9:31 PM MDT
Moon 10:23 PM MDT (4/27) 7:34 AM MDT (4/27)
Length of Visible Light 14h 36m
Length of Day
13h 40m
Waning Gibbous, 95% of the Moon is Illuminated
Apr 27
Waning Gibbous
May 2
Last Quarter
May 9
New
May 17
First Quarter
May 24
Full

Hourly Weather History & Observations

Time (MDT) Temp. Windchill Dew Point Humidity Pressure Visibility Wind Dir Wind Speed Gust Speed Precip Events Conditions
12:12 AM 28.4 °F 23.3 °F 21.2 °F 74% 30.58 in - South 4.6 mph - N/A   Clear
12:32 AM 28.4 °F 23.3 °F 21.2 °F 74% 30.58 in - SSW 4.6 mph - N/A   Clear
12:52 AM 28.4 °F 20.4 °F 23.0 °F 80% 30.58 in - SW 8.1 mph - N/A   Clear
1:12 AM 26.6 °F 16.2 °F 23.0 °F 86% 30.57 in - SSW 11.5 mph - N/A   Unknown
1:32 AM 26.6 °F 15.7 °F 23.0 °F 86% 30.57 in - SSW 12.7 mph - N/A   Unknown
1:52 AM 28.4 °F 19.7 °F 21.2 °F 74% 30.56 in - SSW 9.2 mph - N/A   Clear
2:12 AM 26.6 °F 15.7 °F 21.2 °F 80% 30.56 in - SW 12.7 mph - N/A   Clear
2:32 AM 26.6 °F 15.2 °F 21.2 °F 80% 30.55 in - SW 13.8 mph - N/A   Clear
2:52 AM 26.6 °F 15.2 °F 21.2 °F 80% 30.55 in - SW 13.8 mph - N/A   Clear
3:12 AM 26.6 °F 14.7 °F 21.2 °F 80% 30.54 in - WSW 15.0 mph - N/A   Clear
3:32 AM 26.6 °F 15.2 °F 21.2 °F 80% 30.54 in - WSW 13.8 mph - N/A   Clear
3:52 AM 26.6 °F 15.2 °F 21.2 °F 80% 30.55 in - WSW 13.8 mph - N/A   Clear
4:12 AM 26.6 °F 15.2 °F 19.4 °F 74% 30.55 in - West 13.8 mph - N/A   Clear
4:32 AM 26.6 °F 15.2 °F 19.4 °F 74% 30.55 in - West 13.8 mph - N/A   Clear
4:52 AM 26.6 °F 14.7 °F 19.4 °F 74% 30.55 in - West 15.0 mph - N/A   Clear
5:12 AM 26.6 °F 15.2 °F 19.4 °F 74% 30.54 in - West 13.8 mph - N/A   Clear
5:32 AM 26.6 °F 15.2 °F 19.4 °F 74% 30.54 in - West 13.8 mph - N/A   Clear
5:52 AM 26.6 °F 14.7 °F 19.4 °F 74% 30.54 in - WSW 15.0 mph - N/A   Clear
6:12 AM 26.6 °F 16.2 °F 19.4 °F 74% 30.55 in - WSW 11.5 mph - N/A   Clear
6:32 AM 26.6 °F 17.5 °F 21.2 °F 80% 30.56 in - WSW 9.2 mph - N/A   Clear
6:52 AM 28.4 °F 22.2 °F 19.4 °F 69% 30.56 in - WSW 5.8 mph - N/A   Clear
7:12 AM 28.4 °F 22.2 °F 19.4 °F 69% 30.56 in - West 5.8 mph - N/A   Clear
7:32 AM 28.4 °F 21.2 °F 15.8 °F 59% 30.56 in - West 6.9 mph - N/A   Clear
7:52 AM 28.4 °F 24.6 °F 17.6 °F 64% 30.57 in - WSW 3.5 mph - N/A   Clear
8:12 AM 30.2 °F 26.7 °F 14.0 °F 51% 30.58 in - West 3.5 mph - N/A   Clear
8:32 AM 30.2 °F 25.4 °F 12.2 °F 47% 30.58 in - West 4.6 mph - N/A   Clear
8:52 AM 32.0 °F 28.7 °F 10.4 °F 41% 30.57 in - West 3.5 mph - N/A   Clear
9:12 AM 32.0 °F 22.5 °F 8.6 °F 38% 30.57 in - North 12.7 mph 17.3 mph N/A   Clear
9:32 AM 32.0 °F 21.2 °F 10.4 °F 41% 30.57 in - NNW 16.1 mph 24.2 mph N/A   Clear
9:52 AM 32.0 °F 21.6 °F 10.4 °F 41% 30.57 in - NNE 15.0 mph 24.2 mph N/A   Clear
10:12 AM 33.8 °F 27.7 °F 14.0 °F 44% 30.58 in - North 6.9 mph 17.3 mph N/A   Clear
10:32 AM 33.8 °F 25.8 °F 14.0 °F 44% 30.58 in - WSW 10.4 mph - N/A   Clear
10:52 AM 33.8 °F 25.3 °F 17.6 °F 52% 30.58 in - West 11.5 mph - N/A   Clear
11:12 AM 35.6 °F 29.9 °F 17.6 °F 48% 30.59 in - SW 6.9 mph - N/A   Clear
11:32 AM 35.6 °F - 14.0 °F 41% 30.59 in - Calm Calm - N/A   Scattered Clouds
11:52 AM 37.4 °F 29.3 °F 17.6 °F 45% 30.58 in - West 12.7 mph 16.1 mph N/A   Scattered Clouds
12:12 PM 37.4 °F 28.5 °F 17.6 °F 45% 30.58 in - WSW 15.0 mph 20.7 mph N/A   Scattered Clouds
12:32 PM 37.4 °F 29.3 °F 15.8 °F 41% 30.58 in - WSW 12.7 mph 19.6 mph N/A   Scattered Clouds
12:52 PM 37.4 °F 31.4 °F 14.0 °F 38% 30.58 in - West 8.1 mph - N/A   Scattered Clouds
1:12 PM 39.2 °F 33.6 °F 14.0 °F 36% 30.57 in - West 8.1 mph 16.1 mph N/A   Mostly Cloudy
1:32 PM 41.0 °F 33.5 °F 14.0 °F 33% 30.56 in - WSW 13.8 mph 26.5 mph N/A   Mostly Cloudy
1:52 PM 41.0 °F 32.5 °F 12.2 °F 31% 30.56 in - West 17.3 mph 21.9 mph N/A   Overcast
2:12 PM 41.0 °F 35.2 °F 12.2 °F 31% 30.56 in - West 9.2 mph 20.7 mph N/A   Scattered Clouds
2:32 PM 41.0 °F 34.3 °F 12.2 °F 31% 30.55 in - SW 11.5 mph 28.8 mph N/A   Scattered Clouds
2:52 PM 44.6 °F 40.2 °F 8.6 °F 23% 30.55 in - WNW 8.1 mph 17.3 mph N/A   Scattered Clouds
3:12 PM 42.8 °F - 8.6 °F 25% 30.55 in - Calm Calm - N/A   Clear
3:32 PM 42.8 °F 37.0 °F 10.4 °F 27% 30.54 in - West 10.4 mph - N/A   Scattered Clouds
3:52 PM 44.6 °F 40.2 °F 8.6 °F 23% 30.53 in - North 8.1 mph 17.3 mph N/A   Scattered Clouds
4:12 PM 42.8 °F 38.0 °F 8.6 °F 25% 30.53 in - NW 8.1 mph 16.1 mph N/A   Clear
4:32 PM 42.8 °F 38.6 °F 8.6 °F 25% 30.53 in - NNW 6.9 mph 16.1 mph N/A   Clear
4:52 PM 42.8 °F 37.5 °F 8.6 °F 25% 30.53 in - NW 9.2 mph - N/A   Scattered Clouds
5:12 PM 44.6 °F 37.2 °F 10.4 °F 25% 30.53 in - WNW 17.3 mph 24.2 mph N/A   Clear
5:32 PM 44.6 °F 39.7 °F 6.8 °F 21% 30.53 in - WNW 9.2 mph 16.1 mph N/A   Clear
5:52 PM 44.6 °F 38.4 °F 5.0 °F 20% 30.53 in - WNW 12.7 mph 23.0 mph N/A   Clear
6:12 PM 42.8 °F 36.2 °F 6.8 °F 23% 30.53 in - WNW 12.7 mph - N/A   Clear
6:32 PM 42.8 °F 37.0 °F 8.6 °F 25% 30.53 in - NNW 10.4 mph - N/A   Clear
6:52 PM 41.0 °F 32.2 °F 8.6 °F 26% 30.53 in - West 18.4 mph 25.3 mph N/A   Clear
7:12 PM 41.0 °F 33.1 °F 8.6 °F 26% 30.53 in - WNW 15.0 mph - N/A   Clear
7:32 PM 39.2 °F 31.6 °F 8.6 °F 28% 30.53 in - WNW 12.7 mph - N/A   Clear
7:52 PM 37.4 °F 29.8 °F 6.8 °F 28% 30.53 in - WNW 11.5 mph - N/A   Clear
8:12 PM 35.6 °F 28.6 °F 6.8 °F 30% 30.53 in - WNW 9.2 mph - N/A   Clear
8:32 PM 35.6 °F 28.6 °F 5.0 °F 28% 30.53 in - WNW 9.2 mph - N/A   Clear
8:52 PM 35.6 °F 28.0 °F 5.0 °F 28% 30.53 in - NW 10.4 mph - N/A   Clear
9:12 PM 35.6 °F 28.0 °F 6.8 °F 30% 30.54 in - NW 10.4 mph - N/A   Clear
9:32 PM 35.6 °F 28.0 °F 8.6 °F 33% 30.55 in - NNW 10.4 mph - N/A   Clear
9:52 PM 33.8 °F 25.8 °F 8.6 °F 35% 30.55 in - NNW 10.4 mph 16.1 mph N/A   Clear
10:12 PM 33.8 °F 25.8 °F 8.6 °F 35% 30.55 in - NW 10.4 mph - N/A   Clear
10:32 PM 33.8 °F 27.7 °F 10.4 °F 38% 30.55 in - WNW 6.9 mph - N/A   Clear
10:52 PM 32.0 °F 25.6 °F 10.4 °F 41% 30.55 in - NW 6.9 mph - N/A   Clear
11:12 PM 32.0 °F 23.6 °F 10.4 °F 41% 30.54 in - NW 10.4 mph - N/A   Clear
11:32 PM 32.0 °F 23.6 °F 10.4 °F 41% 30.53 in - NW 10.4 mph - N/A   Clear
11:52 PM 33.8 °F 25.3 °F 10.4 °F 38% 30.53 in - NW 11.5 mph - N/A   Clear